Weather History for KBMI - October, 2012

Change the Weather History Date:

Saturday, October 6, 2012

  Actual Average Record
Temperature  
Mean Temperature 39 °F -  
Max Temperature 46 °F 55 °F 125 °F (2002)
Min Temperature 32 °F 43 °F 32 °F (2012)
Degree Days  
Heating Degree Days 26    
Moisture  
Dew Point 29 °F    
Average Humidity 66    
Maximum Humidity 89    
Minimum Humidity 52    
Precipitation  
Precipitation 0.00 in - - ()
Sea Level Pressure  
Sea Level Pressure 30.22 in    
Wind  
Wind Speed 12 mph (NW)    
Max Wind Speed 18 mph    
Max Gust Speed -    
Visibility 10 miles    
Events      
Averages and records for this station are not official NWS values.
T = Trace of Precipitation, MM = Missing Value Source: NWS Daily Summary

Daily Weather History Graph

Daily Weather History Graph

Search for Another Location

Airport or City:

Trip Planner

Search our weather history database for the weather conditions in past years. The results will help you decide how hot, cold, wet, or windy it might be!

Date:

Astronomy

Oct. 06, 2012 Rise Set
Actual Time 6:57 AM CDT 6:28 PM CDT
Civil Twilight 6:30 AM CDT 6:56 PM CDT
Nautical Twilight 5:58 AM CDT 7:27 PM CDT
Astronomical Twilight 5:27 AM CDT 7:59 PM CDT
Moon 10:43 PM CDT (10/6) 12:53 PM CDT (10/6)
Length of Visible Light 12h 25m
Length of Day
11h 31m
Waning Gibbous, 65% of the Moon is Illuminated
Oct 6
Waning Gibbous
Oct 8
Last Quarter
Oct 15
New
Oct 21
First Quarter
Oct 29
Full

Hourly Weather History & Observations

Time (CDT) Temp. Windchill Dew Point Humidity Pressure Visibility Wind Dir Wind Speed Gust Speed Precip Events Conditions
12:56 AM 36.9 °F 29.6 °F 32.0 °F 83% 30.17 in 10.0 mi West 10.4 mph - N/A   Clear
1:56 AM 34.9 °F 27.1 °F 31.1 °F 86% 30.18 in 10.0 mi West 10.4 mph - N/A   Clear
2:56 AM 34.9 °F 26.6 °F 30.0 °F 82% 30.18 in 10.0 mi West 11.5 mph - N/A   Clear
3:56 AM 32.9 °F 24.1 °F 30.0 °F 89% 30.19 in 10.0 mi WNW 11.5 mph - N/A   Clear
4:56 AM 32.9 °F 23.7 °F 28.0 °F 82% 30.19 in 10.0 mi WNW 12.7 mph - N/A   Clear
5:56 AM 34.0 °F 25.0 °F 27.1 °F 76% 30.20 in 10.0 mi NW 12.7 mph - N/A   Clear
6:56 AM 32.9 °F 24.1 °F 28.0 °F 82% 30.22 in 10.0 mi WNW 11.5 mph - N/A   Clear
7:56 AM 32.9 °F 25.3 °F 28.0 °F 82% 30.24 in 10.0 mi WNW 9.2 mph - N/A   Clear
8:56 AM 36.0 °F 28.0 °F 28.0 °F 73% 30.25 in 10.0 mi West 11.5 mph - N/A   Clear
9:56 AM 38.8 °F 31.2 °F 29.1 °F 68% 30.24 in 10.0 mi NW 12.7 mph - N/A   Clear
10:56 AM 41.9 °F 33.4 °F 28.0 °F 58% 30.24 in 10.0 mi NW 18.4 mph - N/A   Clear
11:56 AM 43.9 °F 36.5 °F 29.1 °F 56% 30.24 in 10.0 mi NW 16.1 mph - N/A   Clear
12:56 PM 45.0 °F 38.2 °F 29.1 °F 54% 30.22 in 10.0 mi NNW 15.0 mph - N/A   Clear
1:56 PM 46.9 °F - 30.0 °F 52% 30.22 in 10.0 mi WNW 10.4 mph - N/A   Clear
2:56 PM 45.9 °F 39.7 °F 29.1 °F 52% 30.21 in 10.0 mi WNW 13.8 mph - N/A   Clear
3:56 PM 45.9 °F 39.4 °F 29.1 °F 52% 30.21 in 9.0 mi WNW 15.0 mph - N/A   Scattered Clouds
4:56 PM 45.0 °F 39.3 °F 29.1 °F 54% 30.22 in 10.0 mi NW 11.5 mph - N/A   Overcast
5:56 PM 43.9 °F 37.9 °F 28.0 °F 54% 30.24 in 10.0 mi NW 11.5 mph - N/A   Overcast
6:56 PM 43.9 °F 38.8 °F 28.0 °F 54% 30.23 in 10.0 mi NW 9.2 mph - N/A   Overcast
7:56 PM 43.0 °F 36.8 °F 29.1 °F 58% 30.25 in 10.0 mi NW 11.5 mph - N/A   Overcast
8:56 PM 41.9 °F 36.3 °F 29.1 °F 61% 30.25 in 10.0 mi NNW 9.2 mph - N/A   Overcast
9:56 PM 41.0 °F 34.7 °F 27.1 °F 58% 30.25 in 10.0 mi NNW 10.4 mph - N/A   Overcast
10:56 PM 41.0 °F 35.8 °F 27.1 °F 58% 30.25 in 10.0 mi NW 8.1 mph - N/A   Overcast
11:56 PM 41.0 °F 35.8 °F 27.1 °F 58% 30.24 in 10.0 mi NW 8.1 mph - N/A   Overcast